#timestamp,LO_Frequency,Hit,StdDev 
1501149615.8,286047004.1,N,1.7
1501149635.6,286047001.3,N,1.7
1501149655.5,286047001.5,N,1.6
1501149675.3,286047002.2,N,1.6
1501149695.1,286047001.7,N,1.5
1501149715.9,286047001.3,N,1.5
1501149735.7,286047004.4,N,1.5
1501149755.6,286047001.5,N,1.5
1501149775.4,286047002.1,N,1.5
1501149795.2,286047004.4,N,1.5
1501149815.1,286047001.4,N,1.5
1501149816.0,286047001.4,N,1.3
1501149835.8,286047001.5,N,1.3
1501149875.1,286046999.8,P,2.3
1501149895.8,286047002.2,N,1.8
1501149915.7,286046999.8,N,1.9
1501149935.5,286047002.7,N,1.7
1501149955.4,286046999.7,N,1.8
1501149975.2,286047002.6,N,1.7
1501149995.0,286047002.6,N,1.6
1501149995.9,286047002.6,N,1.5
1501150015.8,286047001.5,N,1.5
1501150035.6,286047000.4,N,1.5
1501150055.5,286047000.3,N,1.4
1501150075.3,286047000.5,N,1.4
1501150095.1,286047000.3,N,1.4
1501150115.9,286047000.9,N,1.4
1501150135.7,286047000.8,N,1.3
1501150155.5,286047001.4,N,1.3
1501150175.4,286047000.0,N,1.3
1501150195.2,286046998.1,N,1.4
1501150215.1,286046998.1,N,1.5
1501150216.0,286046998.1,N,1.6
1501150235.8,286046998.4,N,1.7
1501150255.6,286046998.1,N,1.7
1501150275.5,286047000.9,N,1.7
1501150295.3,286047000.7,N,1.6
1501150315.2,286046999.8,N,1.6
1501150335.9,286047000.2,N,1.6
1501150355.7,286047000.2,N,1.6
1501150375.6,286047002.8,N,1.6
1501150395.4,286046999.8,N,1.6
1501150415.3,286047000.1,N,1.4
1501150435.6,286047004.3,P,0.0
1501150455.4,286047000.8,P,1.6
1501150475.3,286047000.6,N,1.8
1501150495.1,286046998.1,N,2.4
1501150515.9,286047000.9,N,2.2
1501150535.7,286047001.5,N,2.0
1501150555.5,286047001.7,N,1.9
1501150575.4,286047003.9,N,1.9
1501150595.2,286047001.4,N,1.8
1501150615.0,286047001.4,N,1.8
1501150616.0,286047001.4,N,1.7
1501150635.8,286047001.4,N,1.6
1501150655.6,286047001.9,N,1.6
1501150675.5,286047001.6,N,1.5
1501150695.3,286047001.8,N,1.5
1501150715.1,286047001.4,N,1.4
1501150735.9,286047002.2,N,1.4
1501150755.7,286047002.6,N,1.4
1501150795.0,286046999.9,P,2.2
1501150795.9,286046999.9,N,2.0
1501150815.7,286047000.3,N,1.8
1501150835.6,286047000.4,N,1.6
1501150855.4,286046998.6,N,1.7
1501150875.3,286047001.1,N,1.6
1501150895.1,286046998.6,N,1.7
1501150915.8,286047001.1,N,1.6
1501150935.7,286047000.3,N,1.5
1501150955.5,286047000.2,N,1.4
1501150975.4,286046999.9,N,1.4
1501150995.2,286046999.8,N,1.3
1501151015.0,286047000.2,N,1.3
1501151015.9,286047000.2,N,1.2
1501151035.8,286047000.4,N,1.2
1501151055.6,286047000.5,N,1.2
1501151075.4,286046999.9,N,1.1
1501151095.3,286046999.8,N,1.1
1501151115.1,286047000.2,N,1.1
1501151135.9,286047000.1,N,1.1
1501151155.7,286047000.1,N,1.0
1501151175.5,286046999.8,N,1.0
1501151195.4,286047002.7,N,1.1
1501151215.2,286046999.7,N,1.1
1501151235.1,286047000.0,N,1.1
1501151236.0,286047000.0,N,1.1
1501151255.8,286047002.3,N,1.1
1501151275.6,286047002.8,N,1.2
1501151295.5,286047002.4,N,1.2
1501151315.3,286047000.2,N,1.0
1501151335.2,286047002.5,N,1.1
1501151355.9,286046999.7,N,1.1
1501151375.7,286046999.7,N,1.1
1501151395.6,286047002.7,N,1.1
1501151415.4,286046999.9,N,1.1
1501151435.2,286046999.8,N,1.1
1501151455.1,286047000.6,N,1.0
1501151456.0,286047000.6,N,1.0
1501151475.8,286046998.6,N,1.1
1501151495.7,286046999.8,N,1.1
1501151515.5,286047000.5,N,1.1
1501151535.3,286047000.9,N,1.1
1501151555.2,286047002.0,N,1.1
1501151575.0,286047001.3,N,1.1
1501151575.9,286047001.3,N,1.1
1501151595.8,286047002.4,N,1.2
1501151615.6,286047000.1,N,1.2
1501151635.4,286047002.1,N,1.2
1501151655.3,286047001.4,N,1.2
1501151675.1,286047001.3,N,1.2
1501151695.9,286047002.1,N,1.2
1501151715.7,286047002.2,N,1.2
1501151735.5,286047002.1,N,1.1
1501151755.4,286047001.9,N,1.1
1501151775.2,286047002.6,N,1.1
1501151795.0,286047000.1,N,1.1
1501151795.9,286047000.1,N,1.1
1501151815.8,286047001.0,N,1.1
1501151835.6,286047000.2,N,1.1
1501151855.5,286047002.2,N,1.1
1501151875.3,286047002.3,N,1.1
1501151895.1,286046999.9,N,1.1
1501151915.9,286047000.6,N,1.0
1501151935.7,286047002.8,N,1.0
1501151955.6,286047000.5,N,1.0
1501151975.4,286046999.8,N,1.0
1501151995.2,286047000.7,N,1.0
1501152015.1,286046999.7,N,1.1
1501152016.0,286046999.7,N,1.0
1501152035.8,286046999.8,N,1.0
1501152055.7,286046999.7,N,1.0
1501152075.5,286046999.8,N,1.0
1501152095.3,286047002.3,N,1.0
1501152115.2,286047000.2,N,1.1
1501152135.0,286046999.8,N,1.1
1501152135.9,286046999.8,N,1.1
1501152155.8,286047002.0,N,1.1
1501152175.6,286047000.1,N,1.1
1501152195.4,286047002.4,N,1.1
1501152215.3,286047002.8,N,1.1
1501152235.1,286047000.0,N,1.1
1501152255.8,286047001.6,N,1.1
1501152275.7,286047001.8,N,1.1
1501152295.5,286047002.4,N,1.1
1501152315.4,286047002.1,N,1.1
1501152335.2,286047002.3,N,1.1
1501152355.0,286047002.4,N,1.1
1501152355.9,286047002.4,N,1.2
1501152375.8,286047002.2,N,1.2
1501152395.6,286047002.5,N,1.2
1501152416.0,286047004.0,P,0.0
1501152435.8,286047002.2,P,0.8
1501152455.7,286047000.1,N,1.6
1501152475.5,286047002.7,N,1.4
1501152495.3,286046999.8,N,1.7
1501152515.2,286047000.2,N,1.7
1501152535.0,286047002.8,N,1.6
1501152535.9,286047002.8,N,1.5
1501152555.8,286047001.7,N,1.5
1501152575.6,286047004.3,N,1.5
1501152595.4,286047003.4,N,1.5
1501152615.3,286047001.4,N,1.5
1501152635.1,286047002.8,N,1.4
1501152655.8,286047002.4,N,1.4
1501152675.7,286047002.6,N,1.3
1501152695.5,286046999.8,N,1.4
1501152715.4,286047000.0,N,1.5
1501152735.2,286047001.0,N,1.5
1501152755.0,286047001.0,N,1.4
1501152755.9,286047001.0,N,1.4
1501152775.8,286047001.0,N,1.4
1501152795.6,286046998.4,N,1.5
1501152815.5,286047001.2,N,1.5
1501152835.3,286046998.9,N,1.6
1501152855.1,286047000.0,N,1.6
1501152875.9,286047000.3,N,1.6
1501152895.7,286047000.5,N,1.5
1501152915.5,286046998.2,N,1.6
1501152935.4,286046998.7,N,1.7
1501152955.2,286046998.6,N,1.7
1501152975.1,286046999.1,N,1.6
1501152976.0,286046999.1,N,1.6
1501152995.8,286046996.5,N,1.8
1501153015.6,286046996.9,N,1.9
1501153035.5,286046997.2,N,2.0
1501153055.3,286046998.0,N,2.0
1501153075.2,286046997.8,N,2.0
1501153095.9,286046995.1,N,2.1
1501153115.7,286046995.4,N,2.2
1501153135.6,286046996.1,N,2.2
1501153155.9,286046993.3,P,0.0
1501153175.8,286046996.0,P,1.3
1501153195.6,286046993.3,P,1.2
